Location: Gro�bocka
(50.8204°N, 11.9702°E)
Time: 07:29:48
(UTC+00:00)

CZ-2D R/B - Pass Details

Date: 29 October 2020
Orbit: 522 x 537 km, 97.4° (Epoch: 01 December)

Event Time Altitude Azimuth Distance (km) Brightness Sun altitude
Rises 17:21:18 0° 164° (SSE) 2,650 6.7 -14.6°
Reaches altitude 10° 17:23:24 10° 164° (SSE) 1,763 5.8 -15.0°
Maximum altitude 17:27:12 86° 77° (ENE) 533 3.1 -15.6°
Drops below altitude 10° 17:31:02 10° 348° (NNW) 1,773 6.0 -16.2°
Sets 17:33:09 0° 348° (NNW) 2,666 7.0 -16.5°
